Location: Bemmer
(51.5498°N, 5.6249°E)
Time: 12:15:49
(UTC+00:00)

CSL-04 Rocket - Pass Details

Date: 03 March 2021
Orbit: 805 x 861 km, 98.9° (Epoch: 16 April)

Event Time Altitude Azimuth Distance (km) Brightness Sun altitude
Rises 18:22:52 0° 157° (SSE) 3,426 6.6 -10.3°
Reaches altitude 10° 18:25:14 10° 156° (SSE) 2,491 5.9 -10.7°
Maximum altitude 18:30:46 77° 72° (ENE) 881 3.7 -11.5°
Drops below altitude 10° 18:36:17 10° 347° (NNW) 2,484 6.4 -12.4°
Sets 18:38:39 0° 346° (NNW) 3,416 7.1 -12.8°
